Location: North Evanston
(42.0634°N, 87.6976°W)
Time: 01:35:22
(UTC+00:00)

Courier 1B Rocket - All Passes

Search period start: 14 May 2026 00:00
Search period end: 24 May 2026 00:00
Orbit: 920 x 1201 km, 28.2° (Epoch: 13 May)

Date Brightness Start Highest point End Pass type
(mag) Time Alt. Az. Time Alt. Az. Time Alt. Az.
14 May - 14:04:31 10° SSW 14:08:29 17° SSE 14:12:33 10° SE daylight
14 May - 15:55:55 10° SW 16:00:54 24° S 16:06:06 10° SE daylight
14 May - 17:48:50 10° WSW 17:53:26 20° SSW 17:58:14 10° SSE daylight
15 May - 13:04:39 10° S 13:07:37 14° SSE 13:10:36 10° SE daylight
15 May - 14:55:11 10° SW 14:59:57 22° S 15:04:51 10° SE daylight
15 May - 16:47:40 10° SW 16:52:27 22° S 16:57:26 10° SE daylight
15 May - 18:42:14 10° SW 18:44:55 13° SSW 18:47:39 10° S daylight
16 May - 13:54:37 10° SW 13:59:01 20° S 14:03:31 10° SE daylight
16 May - 15:46:38 10° SW 15:51:29 23° S 15:56:29 10° SE daylight
16 May - 17:40:14 10° SW 17:43:56 16° SSW 17:47:46 10° SSE daylight
17 May - 12:54:16 10° SSW 12:58:08 17° SSE 13:02:02 10° SE daylight
17 May - 14:45:45 10° SW 14:50:32 23° S 14:55:26 10° SE daylight
17 May - 16:38:46 10° SW 16:42:59 18° SSW 16:47:22 10° SSE daylight
18 May - 11:54:16 10° S 11:57:16 14° SSE 12:00:14 10° SE daylight
18 May - 13:44:58 10° SW 13:49:36 22° S 13:54:18 10° SE daylight
18 May - 15:37:32 10° SW 15:42:03 21° S 15:46:41 10° SE daylight
18 May - 17:32:31 10° SW 17:34:26 11° SSW 17:36:22 10° S daylight
19 May - 10:55:38 10° SSE 10:56:24 10° SSE 10:57:10 10° SSE daylight
19 May - 12:44:19 10° SW 12:48:41 20° S 12:53:04 10° SE daylight
19 May - 14:36:28 10° SW 14:41:07 22° S 14:45:52 10° SE daylight
19 May - 16:30:14 10° SW 16:33:31 15° SSW 16:36:52 10° SSE daylight
20 May - 11:43:50 10° SSW 11:47:48 17° SSE 11:51:43 10° SE daylight
20 May - 13:35:29 10° SW 13:40:12 22° S 13:44:56 10° SE daylight
20 May - 15:28:39 10° SW 15:32:37 17° SSW 15:36:39 10° SSE daylight
21 May - 10:43:41 10° SSW 10:46:54 14° SSE 10:50:05 10° SE daylight
21 May - 12:34:37 10° SW 12:39:17 22° S 12:43:55 10° SE daylight
21 May - 14:27:20 10° SW 14:31:42 20° S 14:36:07 10° SE daylight
21 May - 16:23:03 10° SSW 16:24:01 10° SSW 16:25:01 10° SSW daylight
22 May - 09:44:20 10° S 09:46:01 11° SSE 09:47:40 10° SE visible
22 May - 11:33:50 10° SW 11:38:22 20° S 11:42:48 10° SE daylight
22 May - 13:26:10 10° SW 13:30:48 22° S 13:35:25 10° SE daylight
22 May - 15:20:10 10° SW 15:23:09 14° SSW 15:26:09 10° S daylight
23 May - 10:33:13 10° SSW 10:37:27 18° SSE 10:41:33 10° SE daylight
23 May - 12:25:05 10° SW 12:29:53 23° S 12:34:36 10° SE daylight
23 May - 14:18:25 10° SW 14:22:16 17° SSW 14:26:08 10° SSE daylight
